Flag for Taiwan Weather past 2 weeks in Taichung, Taiwan

Now
68 °F

Broken clouds.


Feels Like: 68 °F
Forecast: 65 / 74 °F
Wind: 23 mph from East

Location: Chiang Kai Shek

Current Time: Dec 26, 2014 at 1:23:52 PM

Latest Report: Dec 26, 2014 at 1:00 PM


Visibility: N/A

Pressure: 30.18 "Hg

Humidity: 49%

Dew point: 48 °F

Location of TaichungLocation

Historic Weather in Taichung — Graph

°F

Taichung temperature yesterday

Maximum temperature yesterday: 66 °F (at 10:00 AM)
Minimum temperature yesterday: 59 °F (at 7:30 PM)
Average temperature yesterday: 63 °F

Past Weeks' High & Low Weather Summary

 TemperatureHumidityPressure
High70 °F (Dec 23, 11:30 AM)94% (Dec 12, 2:30 AM)30.45 "Hg (Dec 12, 2:30 AM)
Low52 °F (Dec 17, 6:00 AM)40% (Dec 23, 11:30 AM)30.09 "Hg (Dec 15, 1:30 PM)
Average60 °F66%30.24 "Hg
* Reported Dec 11 12:00 Noon — Dec 26 12:00 Noon, Taichung, Weather by CustomWeather, © 2014

Note: Actual official high and low records may vary slightly from our data, if they occured in-between our weather recording intervals... More about our weather records

Advertising

Taichung weather history for previous 24 hours

 ConditionsComfort  
Time TempWeatherWind HumidityBarometerVisibility
12:00 PM
Dec 26
66 °FPartly sunny.25 mph56%30.18 "HgN/A
11:30 AM66 °FPartly sunny.20 mph56%30.21 "HgN/A
10:30 AM64 °FPartly sunny.24 mph60%30.24 "HgN/A
10:00 AM66 °FPartly sunny.21 mph56%30.27 "HgN/A
9:30 AM64 °FPartly sunny.20 mph60%30.27 "HgN/A
9:00 AM63 °FPartly sunny.24 mph59%30.27 "HgN/A
8:30 AM61 °FPartly sunny.25 mph63%30.27 "HgN/A
8:00 AM61 °FPartly sunny.28 mph68%30.24 "HgN/A
7:30 AM61 °FPartly sunny.26 mph68%30.24 "HgN/A
7:00 AM61 °FPartly sunny.26 mph68%30.24 "HgN/A
6:30 AM61 °FPassing clouds.24 mph68%30.21 "HgN/A
6:00 AM61 °FPassing clouds.24 mph72%30.21 "HgN/A
5:30 AM61 °FPassing clouds.26 mph72%30.18 "HgN/A
5:02 AM61 °FPartly cloudy.26 mph72%30.18 "HgN/A
4:30 AM61 °FPartly cloudy.30 mph72%30.18 "HgN/A
4:00 AM61 °FPartly cloudy.22 mph77%30.18 "HgN/A
3:30 AM61 °FPartly cloudy.22 mph77%30.18 "HgN/A
3:00 AM61 °FPartly cloudy.18 mph77%30.18 "HgN/A
2:30 AM61 °FPartly cloudy.21 mph77%30.18 "HgN/A
2:00 AM61 °FPassing clouds.23 mph77%30.15 "HgN/A
1:30 AM61 °FPassing clouds.24 mph77%30.18 "HgN/A
1:00 AM61 °FPassing clouds.24 mph77%30.21 "Hg6 mi
12:30 AM63 °FPassing clouds.21 mph73%30.21 "Hg6 mi
12:00 AM61 °FPassing clouds.20 mph77%30.21 "Hg6 mi
11:00 PM
Dec 25
61 °FPassing clouds.21 mph77%30.21 "Hg6 mi
10:30 PM61 °FPassing clouds.15 mph83%30.21 "Hg4 mi
10:00 PM61 °FPartly cloudy.16 mph83%30.21 "Hg4 mi
9:30 PM61 °FLight rain. Passing clouds.18 mph83%30.21 "Hg3 mi
9:00 PM61 °FLight rain. Partly cloudy.18 mph83%30.24 "Hg2 mi
8:30 PM61 °FLight rain. Passing clouds.18 mph83%30.24 "Hg2 mi
8:00 PM61 °FLight rain. Passing clouds.10 mph83%30.24 "Hg2 mi
7:30 PM59 °FLight rain. Partly cloudy.10 mph88%30.21 "Hg2 mi
7:00 PM61 °FLight rain. Partly cloudy.12 mph83%30.18 "Hg3 mi
6:30 PM61 °FLight rain. Partly cloudy.10 mph83%30.18 "Hg2 mi
6:00 PM61 °FLight rain. Passing clouds.10 mph83%30.18 "Hg2 mi
5:30 PM61 °FLight rain. Fog.10 mph83%30.18 "Hg2 mi
5:00 PM61 °FLight rain. Fog.12 mph83%30.21 "Hg2 mi
4:30 PM61 °FLight rain. Fog.12 mph83%30.18 "Hg2 mi
4:00 PM61 °FLight rain. Fog.8 mph83%30.21 "Hg2 mi
3:30 PM61 °FLight rain. Partly sunny.12 mph83%30.18 "Hg3 mi
3:00 PM61 °FLight rain. Partly sunny.12 mph83%30.18 "Hg4 mi
2:30 PM61 °FLight rain. Broken clouds.13 mph77%30.15 "Hg4 mi
2:00 PM63 °FLight rain. Broken clouds.14 mph73%30.18 "Hg5 mi
1:30 PM64 °FLight rain. Broken clouds.17 mph68%30.15 "Hg5 mi
1:00 PM66 °FBroken clouds.16 mph60%30.18 "Hg6 mi
Weather by CustomWeather, © 2014

See weather overviewHow to use our weather pages